TALON61 KNJK-KNJK

Flight info

Callsign TALON61
Flight time N/A
Altitude 15000
Route VFR
Aircraft HAWK/L-V/N

Departure

Time 2026-04-19 18:52
Airport El Centro NAF Airport (Vraciu Field) (KNJK)

Arrival

Time N/A
Airport El Centro NAF Airport (Vraciu Field) (KNJK)
Time Latitude Longitude Altitude Speed Heading
2026-04-19 18:42 32.82269 -115.67141 -36 ft 0 kts 355°
2026-04-19 18:45 32.82270 -115.67141 -36 ft 1 kts 355°
2026-04-19 18:46 32.82278 -115.67142 -40 ft 0 kts 354°
2026-04-19 18:47 32.82286 -115.67143 -40 ft 0 kts 354°
2026-04-19 18:47 32.82291 -115.67144 -48 ft 0 kts 353°
2026-04-19 18:47 32.82303 -115.67137 -36 ft 4 kts 81°
2026-04-19 18:48 32.82302 -115.67119 -36 ft 1 kts 89°
2026-04-19 18:48 32.82302 -115.67075 -36 ft 10 kts 90°
2026-04-19 18:48 32.82334 -115.66991 -35 ft 15 kts 21°
2026-04-19 18:48 32.82470 -115.67010 -38 ft 25 kts 328°
2026-04-19 18:49 32.82588 -115.67145 -41 ft 25 kts 313°
2026-04-19 18:49 32.82638 -115.67313 -37 ft 23 kts 271°
2026-04-19 18:49 32.82642 -115.67531 -35 ft 29 kts 267°
2026-04-19 18:49 32.82639 -115.67774 -35 ft 13 kts 270°
2026-04-19 18:50 32.82638 -115.67895 -35 ft 19 kts 268°
2026-04-19 18:50 32.82639 -115.68085 -36 ft 27 kts 270°
2026-04-19 18:50 32.82643 -115.68343 -40 ft 35 kts 270°
2026-04-19 18:50 32.82642 -115.68579 -42 ft 20 kts 270°
2026-04-19 18:51 32.82737 -115.68665 -51 ft 23 kts
2026-04-19 18:51 32.82906 -115.68657 -43 ft 24 kts 22°
2026-04-19 18:51 32.82918 -115.68517 -44 ft 21 kts 89°
2026-04-19 18:52 32.82918 -115.67667 -31 ft 120 kts 90°
2026-04-19 18:52 32.82922 -115.66352 111 ft 193 kts 89°
2026-04-19 18:52 32.82970 -115.64547 850 ft 237 kts 75°
2026-04-19 18:52 32.84163 -115.63540 2268 ft 236 kts 352°
2026-04-19 18:53 32.86009 -115.63956 2535 ft 303 kts 349°
2026-04-19 18:53 32.88237 -115.64634 3027 ft 351 kts 344°
2026-04-19 18:53 32.90555 -115.65829 3400 ft 365 kts 317°
2026-04-19 18:53 32.92260 -115.67681 3481 ft 314 kts 321°
2026-04-19 18:54 32.93939 -115.69247 2994 ft 291 kts 322°
2026-04-19 18:54 32.95215 -115.70910 2578 ft 269 kts 302°
2026-04-19 18:54 32.95382 -115.73027 2021 ft 250 kts 233°
2026-04-19 18:54 32.94221 -115.72891 1886 ft 213 kts 115°
2026-04-19 18:55 32.94417 -115.71251 1454 ft 224 kts 32°
2026-04-19 18:55 32.95657 -115.70464 1442 ft 209 kts 27°
2026-04-19 18:56 32.96442 -115.70325 1541 ft 184 kts 324°
2026-04-19 18:57 32.96553 -115.71519 2271 ft 160 kts 212°
2026-04-19 18:57 32.95485 -115.72447 1158 ft 210 kts 215°
2026-04-19 18:57 32.94170 -115.73107 790 ft 207 kts 185°
2026-04-19 18:57 32.92843 -115.73130 919 ft 172 kts 135°
2026-04-19 18:58 32.92377 -115.71717 1122 ft 218 kts 101°
2026-04-19 18:58 32.92073 -115.69787 2044 ft 248 kts 99°
2026-04-19 18:58 32.92520 -115.67904 3679 ft 248 kts 40°
2026-04-19 18:58 32.94167 -115.68027 4601 ft 270 kts 342°
2026-04-19 18:59 32.95988 -115.68802 4550 ft 273 kts 338°
2026-04-19 18:59 32.97675 -115.69649 4763 ft 265 kts 334°
2026-04-19 18:59 32.98911 -115.71067 4633 ft 234 kts 252°
2026-04-19 18:59 32.97695 -115.72068 4522 ft 241 kts 195°
2026-04-19 19:00 32.95953 -115.72409 3093 ft 255 kts 191°
2026-04-19 19:00 32.94403 -115.72746 1615 ft 214 kts 189°
2026-04-19 19:00 32.92880 -115.73028 338 ft 243 kts 187°
2026-04-19 19:00 32.91457 -115.72881 1954 ft 194 kts 139°
2026-04-19 19:01 32.91011 -115.71366 2696 ft 226 kts 96°
2026-04-19 19:01 32.91020 -115.69242 3013 ft 282 kts 86°
2026-04-19 19:01 32.91985 -115.67596 4485 ft 242 kts
2026-04-19 19:01 32.93645 -115.68123 5048 ft 277 kts 339°
2026-04-19 19:02 32.95621 -115.68969 5099 ft 315 kts 340°
2026-04-19 19:02 32.97688 -115.69927 5600 ft 309 kts 320°
2026-04-19 19:02 32.97090 -115.71186 4612 ft 228 kts 193°
2026-04-19 19:02 32.95595 -115.71450 2886 ft 211 kts 186°
2026-04-19 19:03 32.94168 -115.71716 1405 ft 209 kts 194°
2026-04-19 19:03 32.92811 -115.72327 610 ft 217 kts 203°
2026-04-19 19:03 32.91547 -115.71825 990 ft 204 kts 111°
2026-04-19 19:03 32.91090 -115.70245 2221 ft 211 kts 111°
2026-04-19 19:04 32.91011 -115.68445 3189 ft 233 kts 70°
2026-04-19 19:04 32.92259 -115.67204 4119 ft 254 kts
2026-04-19 19:04 32.93942 -115.68022 4757 ft 289 kts 328°
2026-04-19 19:04 32.95778 -115.69287 5354 ft 319 kts 329°
2026-04-19 19:05 32.97798 -115.70430 5589 ft 318 kts 338°
2026-04-19 19:05 32.98548 -115.71940 6592 ft 191 kts 214°
2026-04-19 19:05 32.97388 -115.72425 5681 ft 182 kts 193°
2026-04-19 19:05 32.96026 -115.72849 3832 ft 219 kts 185°
2026-04-19 19:06 32.94454 -115.72933 1919 ft 232 kts 181°
2026-04-19 19:06 32.92823 -115.72958 915 ft 217 kts 175°
2026-04-19 19:06 32.91972 -115.71982 2092 ft 207 kts 105°
2026-04-19 19:06 32.91679 -115.70043 2416 ft 254 kts 94°
2026-04-19 19:07 32.91745 -115.67817 3406 ft 269 kts 71°
2026-04-19 19:07 32.92803 -115.67985 2947 ft 269 kts 250°
2026-04-19 19:07 32.91672 -115.70127 1555 ft 338 kts 243°
2026-04-19 19:07 32.92737 -115.72780 329 ft 401 kts 321°
2026-04-19 19:08 32.93769 -115.73698 517 ft 407 kts 324°
2026-04-19 19:08 32.91639 -115.68944 2892 ft 275 kts 91°
2026-04-19 19:08 32.92390 -115.67298 4370 ft 241 kts 343°
2026-04-19 19:08 32.92772 -115.68113 2818 ft 296 kts 243°